EW4858 Weather Reports


Display with metric or nautical units.
time (UTC)temp
F
wind
direction
speed
MPH
gust
MPH
rain 1hr
in
rain 24hr
in
rain mn
in
humidity
%
barometer
mb
20260904043106 67 92 2.0 5.0 0.00 0.00 0.00 77 1008.6
20260904041554 68 105 0.0 3.0 0.00 0.00 0.00 77 1008.6
20260904040053 68 106 0.0 3.0 0.00 0.00 0.00 76 1008.5
20260904034553 68 114 0.0 4.0 0.00 0.00 0.00 76 1008.5
20260904033053 69 111 0.0 3.0 0.00 0.00 0.00 75 1008.3
20260904031552 69 114 2.0 7.0 0.00 0.00 0.00 74 1008.2
20260904030052 70 115 1.0 5.0 0.00 0.00 0.00 72 1008.1
20260904024551 71 86 1.0 5.0 0.00 0.00 0.00 70 1008.0
20260904023051 71 88 1.0 7.0 0.00 0.00 0.00 69 1007.9
20260904021555 72 102 0.0 4.0 0.00 0.00 0.00 68 1007.9
20260904020050 72 41 3.0 7.0 0.00 0.00 0.00 67 1007.9
20260904014553 74 121 6.0 9.0 0.00 0.00 0.00 65 1008.0
20260904013059 74 53 3.0 7.0 0.00 0.00 0.00 62 1007.9
20260904011553 75 5 3.0 8.0 0.00 0.00 0.00 61 1007.9
20260904010049 76 48 4.0 6.0 0.00 0.00 0.00 60 1008.0
20260904004548 76 351 3.0 10.0 0.00 0.00 0.00 58 1008.1
20260904003046 76 53 3.0 11.0 0.00 0.00 0.00 58 1008.0
20260904001546 77 24 4.0 9.0 0.00 0.00 0.00 57 1008.0
20260904000046 77 61 6.0 14.0 0.00 0.00 0.00 57 1007.9
20260903234545 78 108 6.0 14.0 0.00 0.00 0.00 56 1008.0
20260903233047 79 38 8.0 13.0 0.00 0.00 0.00 55 1007.9
20260903231543 79 92 6.0 12.0 0.00 0.00 0.00 57 1008.1
20260903230042 80 76 7.0 12.0 0.00 0.00 0.00 55 1008.1
20260903224541 80 74 8.0 13.0 0.00 0.00 0.00 54 1008.2
20260903223050 81 49 9.0 14.0 0.00 0.00 0.00 53 1008.4
20260903221540 81 360 6.0 13.0 0.00 0.00 0.00 48 1008.4
20260903220057 81 54 7.0 13.0 0.00 0.00 0.00 48 1008.4
20260903214538 81 38 6.0 12.0 0.00 0.00 0.00 51 1008.5
20260903213041 80 64 8.0 18.0 0.00 0.00 0.00 54 1008.5
20260903211536 80 53 10.0 15.0 0.00 0.00 0.00 55 1008.7
20260903210042 81 43 6.0 13.0 0.00 0.00 0.00 54 1008.6
20260903204535 81 11 3.0 13.0 0.00 0.00 0.00 52 1008.6
20260903203034 81 26 5.0 12.0 0.00 0.00 0.00 53 1008.6
20260903201533 81 42 7.0 13.0 0.00 0.00 0.00 54 1008.7
20260903200032 82 96 4.0 13.0 0.00 0.00 0.00 52 1008.7
20260903194544 82 52 6.0 12.0 0.00 0.00 0.00 50 1008.8
20260903193030 83 64 7.0 10.0 0.00 0.00 0.00 44 1008.9
20260903191527 82 95 5.0 10.0 0.00 0.00 0.00 41 1009.1
20260903190024 81 53 2.0 9.0 0.00 0.00 0.00 41 1009.4
20260903184520 81 5 1.0 9.0 0.00 0.00 0.00 39 1009.6
20260903183017 80 350 2.0 7.0 0.00 0.00 0.00 40 1009.9
20260903181513 79 28 1.0 7.0 0.00 0.00 0.00 45 1010.2
20260903180017 77 50 2.0 6.0 0.00 0.00 0.00 47 1010.2
20260903174506 76 98 2.0 8.0 0.00 0.00 0.00 52 1010.4
20260903173007 75 360 1.0 5.0 0.00 0.00 0.00 55 1010.6
20260903171607 73 360 0.0 5.0 0.00 0.00 0.00 58 1010.7
20260903170056 72 36 2.0 5.0 0.00 0.00 0.00 58 1010.6
20260903164552 71 62 1.0 4.0 0.00 0.00 0.00 61 1010.7
20260903163048 70 94 0.0 0.0 0.00 0.00 0.00 62 1010.7
20260903161547 68 43 0.0 0.0 0.00 0.00 0.00 65 1010.8
20260903160041 67 43 0.0 2.0 0.00 0.00 0.00 67 1010.9
20260903154539 66 254 0.0 0.0 0.00 0.00 0.00 69 1010.9
20260903153036 65 254 0.0 0.0 0.00 0.00 0.00 70 1010.8
20260903151535 65 254 0.0 0.0 0.00 0.00 0.00 70 1010.9
20260903150044 64 254 0.0 0.0 0.00 0.00 0.00 70 1011.0
20260903144539 63 254 0.0 0.0 0.00 0.00 0.00 71 1011.0
20260903143040 60 254 0.0 0.0 0.00 0.00 0.00 72 1010.9
20260903141535 59 254 0.0 0.0 0.00 0.00 0.00 74 1010.8
20260903140027 57 254 0.0 3.0 0.00 0.00 0.00 79 1010.6
20260903134543 57 254 0.0 0.0 0.00 0.00 0.00 79 1010.5
20260903133029 57 254 0.0 0.0 0.00 0.00 0.00 78 1010.3
20260903131527 57 254 0.0 3.0 0.00 0.00 0.00 79 1010.3
20260903130024 57 254 1.0 3.0 0.00 0.00 0.00 79 1010.4
20260903124523 57 254 0.0 3.0 0.00 0.00 0.00 79 1010.4
20260903123027 57 254 1.0 4.0 0.00 0.00 0.00 80 1010.3
20260903121526 57 254 1.0 5.0 0.00 0.00 0.00 81 1010.2
20260903120022 58 254 0.0 4.0 0.00 0.00 0.00 81 1010.1
20260903114526 58 254 2.0 5.0 0.00 0.00 0.00 81 1010.2
20260903113020 58 254 1.0 4.0 0.00 0.00 0.00 82 1010.2
20260903111518 58 254 0.0 4.0 0.00 0.00 0.00 82 1010.4
20260903110016 58 254 0.0 4.0 0.00 0.00 0.00 82 1010.3
20260903104516 59 254 2.0 6.0 0.00 0.00 0.00 81 1010.4
20260903103015 59 239 2.0 4.0 0.00 0.00 0.00 81 1010.3
20260903101512 59 238 2.0 4.0 0.00 0.00 0.00 81 1010.3
20260903100011 59 238 0.0 4.0 0.00 0.00 0.00 81 1010.4
20260903094509 60 238 0.0 4.0 0.00 0.00 0.00 81 1010.5
20260903093015 60 238 0.0 4.0 0.00 0.00 0.00 80 1010.6
20260903091505 61 238 0.0 0.0 0.00 0.00 0.00 80 1010.7
20260903090004 61 238 0.0 0.0 0.00 0.00 0.00 80 1010.8
20260903084503 61 238 0.0 0.0 0.00 0.00 0.00 80 1010.9
20260903083100 61 238 0.0 0.0 0.00 0.00 0.00 80 1011.1
20260903081559 61 238 0.0 0.0 0.00 0.00 0.00 79 1011.2
20260903080057 61 238 0.0 4.0 0.00 0.00 0.00 79 1011.2
20260903074555 62 238 1.0 3.0 0.00 0.00 0.00 78 1011.2
20260903073100 63 238 0.0 3.0 0.00 0.00 0.00 79 1011.2
20260903071553 63 200 0.0 0.0 0.00 0.00 0.00 81 1011.2
20260903070047 64 163 0.0 0.0 0.00 0.00 0.00 81 1011.1
20260903064547 64 163 0.0 0.0 0.00 0.00 0.00 80 1011.2
20260903063047 65 163 0.0 0.0 0.00 0.00 0.00 80 1011.2
20260903061547 66 132 0.0 0.0 0.00 0.00 0.00 81 1011.1
20260903060046 66 132 0.0 0.0 0.00 0.00 0.00 81 1011.2
20260903054545 67 132 0.0 0.0 0.00 0.00 0.00 81 1011.3
20260903053045 67 132 0.0 3.0 0.00 0.00 0.00 81 1011.4
20260903051551 67 121 1.0 3.0 0.00 0.00 0.00 80 1011.3
20260903050044 67 95 1.0 3.0 0.00 0.00 0.00 79 1011.4
20260903044547 68 140 0.0 3.0 0.00 0.00 0.00 78 1011.3